User: anonymous   Login
Location: Betra
(48.4113°N, 8.6634°E)
Time: 10:00:31
(UTC+00:00)
Language:

Meteor 1-4 Rocket - Orbit

View from above orbital plane
View from above orbital plane
View from above satellite
View from above satellite

Ground track
Ground track

The orbit data is extracted from the following two-line orbital elements,

1  4394U 70037B   24198.12619445  .00073575  00000-0  60990-3 0  9997
2  4394  81.2255 188.4539 0017222 196.2316 163.8392 15.69752456961306
Epoch (UTC): 16 July 2024 03:01:43
Eccentricity: 0.0017222
inclination: 81.2255°
perigee height: 348 km
apogee height: 371 km
right ascension of ascending node: 188.4539°
argument of perigee: 196.2316°
revolutions per day: 15.69752456
mean anomaly at epoch: 163.8392°
orbit number at epoch: 96130

The dashed part of the orbit path shows where the satellite is in the earth's shadow,  

DLR